This demonstration page uses our WeatherBlox Daily Observations layout. Learn more.

39.01783, -85.05884

Hourly Observations for January 20, 2019

Temp ( °F °C ) Dew Point ( °F °C ) Humidity (%) Winds ( mph kmh ) Pressure ( in mb ) Visibility ( mi km ) Precip ( " mm )
12:27 am 00:27 Mostly Cloudy with Snow 21 -6.1 17 -8.3 85 85 N 28 44 29.74 1007 0.25 0.402336 0.01 0.254
12:45 am 00:45 Mostly Cloudy with Snow 20 -6.7 17 -8.3 89 89 N 28 44 29.74 1007 0.5 0.804672 0.02 0.508
12:52 am 00:52 Mostly Cloudy with Snow 20 -6.7 17 -8.3 89 89 N 26 43 29.71 1006 0.5 0.804672 0.02 0.508
1:27 am 01:27 Cloudy with Snow 20 -6.7 16 -8.9 85 85 N 26 43 29.8 1009 0.75 1.207008 0.001 0.001
1:47 am 01:47 Mostly Cloudy with Snow 19 -7 16 -9 86 86 NNW 24 39 29.83 1010 0.5 0.804672 0.01 0.254
1:52 am 01:52 Mostly Cloudy with Snow 19 -7.2 16 -8.9 88 88 NNW 22 35 29.77 1008 0.5 0.804672 0.01 0.254
2:13 am 02:13 Windy with Snow Likely 19 -7.2 15 -9.4 84 84 NNW 22 35 29.83 1010 0.75 1.207008 0.01 0.254
2:23 am 02:23 Windy with Snow Likely 19 -7.2 15 -9.4 84 84 NNW 21 33 29.85 1011 2 3.218688 0.01 0.254
2:30 am 02:30 Windy with Snow Likely 19 -7.2 14 -10 81 81 NNW 21 33 29.85 1011 2.5 4.02336 0.01 0.254
2:37 am 02:37 Cloudy with Blowing Snow 19 -7.2 14 -10 81 81 NNW 22 35 29.85 1011 4 6.437376 0.01 0.254
2:52 am 02:52 Cloudy with Blowing Snow 19 -7.2 13 -10.6 77 77 NNW 26 43 29.83 1010 4 6.437376 0.01 0.254
3:52 am 03:52 Cloudy with Blowing Snow 18 -7.8 13 -10.6 81 81 NNW 22 35 29.85 1011 8 12.874752 0 0
4:52 am 04:52 Cloudy with Blowing Snow 17 -8.3 12 -11.1 80 80 NNW 21 33 29.94 1014 6 9.656064 0 0
5:52 am 05:52 Windy with Snow Likely 15 -9.4 9 -12.8 77 77 NNW 22 35 29.97 1015 4 6.437376 0.001 0.001
6:52 am 06:52 Windy with Snow Likely 14 -10 8 -13.3 77 77 NNW 21 33 30.03 1017 5 8.04672 0.001 0.001
7:52 am 07:52 Cloudy with Light Snow 13 -10.6 7 -13.9 77 77 N 17 28 30.06 1018 6 9.656064 0.001 0.001
8:52 am 08:52 Mostly Cloudy 11 -11.7 4 -15.6 73 73 NNW 12 19 30.12 1020 10 16.09344 0.001 0.001
9:47 am 09:47 Mostly Cloudy 10 -12 3 -16 72 72 NNW 14 22 30.24 1024 10 16.09344 0 0
9:52 am 09:52 Partly Cloudy 10 -12.2 3 -16.1 73 73 NNW 17 28 30.15 1021 10 16.09344 0 0
10:52 am 10:52 Mostly Cloudy 12 -11.1 4 -15.6 70 70 N 16 26 30.18 1022 10 16.09344 0 0
11:52 am 11:52 Mostly Cloudy 12 -11.1 3 -16.1 67 67 NNW 13 20 30.21 1023 10 16.09344 0 0
12:52 pm 12:52 Mostly Cloudy 14 -10 2 -16.7 58 58 NNW 17 28 30.21 1023 10 16.09344 0 0
1:44 pm 13:44 Mostly Cloudy with Blowing Snow 15 -9.4 0 -17.8 51 51 N 16 26 30.27 1025 1.5 2.414016 0 0
1:50 pm 13:50 Partly Cloudy 16 -9 1 -17 53 53 N 21 33 30.27 1025 10 16.09344 0 0
1:52 pm 13:52 Partly Cloudy 15 -9.4 0 -17.8 51 51 NNW 21 33 30.21 1023 10 16.09344 0 0
2:52 pm 14:52 Partly Cloudy 16 -8.9 0 -17.8 49 49 N 21 33 30.21 1023 10 16.09344 0.001 0.001
3:52 pm 15:52 Partly Cloudy 16 -8.9 0 -17.8 49 49 NNW 16 26 30.24 1024 10 16.09344 0 0
4:52 pm 16:52 Partly Cloudy 15 -9.4 -1 -18.3 49 49 N 14 22 30.27 1025 10 16.09344 0 0
5:52 pm 17:52 Mostly Cloudy 13 -10.6 -1 -18.3 54 54 N 8 13 30.3 1026 10 16.09344 0 0
6:52 pm 18:52 Mostly Cloudy 12 -11.1 0 -17.8 58 58 NNW 5 7 30.33 1027 10 16.09344 0 0
7:52 pm 19:52 Partly Cloudy 10 -12.2 0 -17.8 63 63 NW 7 11 30.36 1028 10 16.09344 0 0
8:52 pm 20:52 Mostly Clear 10 -12.2 0 -17.8 63 63 NW 8 13 30.36 1028 10 16.09344 0 0
9:52 pm 21:52 Partly Cloudy 8 -13.3 -1 -18.3 66 66 WNW 7 11 30.39 1029 10 16.09344 0 0
10:52 pm 22:52 Partly Cloudy 9 -12.8 0 -17.8 66 66 NNW 6 9 30.39 1029 10 16.09344 0 0
11:52 pm 23:52 Clear 7 -13.9 1 -17.2 76 76 Calm 30.39 1029 10 16.09344 0 0

Powered by AerisWeather